IRIDIUM 33 DEB

Satellite information

Favourite Embed

Satellite Type and Status

DEBRISDECAYED

Key statistics

Satellite IRIDIUM 33 DEB at a glance.

Uptime

10113

Days in orbit

Revolutions

≈ 16.1

Per day

Orbit

LEO

Low Earth Orbit

Inclination

86.2

Latest

Satellite identification and parameters

Extended collection of information and parameters for IRIDIUM 33 DEB.

Object identification

Identified? True

Debris? True

Object name: IRIDIUM 33 DEB

International designator: 1997-051AH

Object number (NORAD): 33864

Object ID (CCSDS): 33864

Country: UNITED STATES OF AMERICA (US)

Current information (Y/N): Y

RCS size: SMALL

Orbital parameters

Decay date: May 23, 2025

Period: 89.327 minutes

Inclination: 86.1567 deg

SMA: 6619.347 km

Apoapsis: 245.916 km

Periapsis: 236.509 km

RAAN: 11.5521 deg

Eccentricy: 0.0007106

Argument of periapsis: 205.9328 deg

Mean anomaly: 154.161 deg

Mean motion: 16.12055539 rev/day

Mean motion (dot): 0.04457602 rev/day2

B* drag term: 0.0064048 1/REarth

Two-line elements (TLE)

Creation date: May 20, 2025, 6:25 p.m.

Reference frame: TEME

Reference center: EARTH

Epoch: May 19, 2025, 4:22 p.m. UTC

TLE line 0: 0 IRIDIUM 33 DEB

TLE line 1: 1 33864U 97051AH 25139.68197131 .04457602 65613-1 64048-2 0 9996

TLE line 2: 2 33864 86.1567 11.5521 0007106 205.9328 154.1610 16.12055539860433

Live tracking on map

Satellite IRIDIUM 33 DEB has decayed and is no longer in orbit. No tracking available.

In-orbit conjunctions

Satellite IRIDIUM 33 DEB has decayed and is no longer in orbit. No conjunctions available.

Associated space launch

Iridium provides global mobile telecommunications services using a constellation of 66 low earth orbit satellites in a 86.4° inclined orbit. Although 77 satellites were originally envisioned for the system and spawned the name based on the 77th element in the periodic table, the system has been scaled back. Motorola's Satellite Communications Group designed and manufactured the Iridium satellites with Lockheed Martin providing the LM-700A spacecraft buses.

IRIDIUM 33 DEB was lifted into orbit during the mission ‘Proton-K/17S40 | Iridium 27 to 33’, on board a Proton-K/17S40 space rocket.

The launch took place on Sept. 14, 1997, 1:36 a.m. from 81/23 (81L).

For more information about the launch, click the button.

Launch to space Proton-K/17S40 | Iridium 27 to 33
Proton-K/17S40 | Iridium 27 to 33

Agency: N/A

Status: Launch Successful

Launch date: Sept. 14, 1997, 1:36 a.m. UTC

Rocket: Proton-K/17S40

Launch pad: 81/23 (81L)

Location: Baikonur Cosmodrome, Republic of Kazakhstan

...

Latest news about this satellite

There are no fresh news available about this satellite. Check back as we update our databases every day.


Newsletter sign-up

Weekly statistics, charts and insights to help you stay on top of the space industry.